Find Starlink 32915

NORAD ID: 63152 Int'l Des: 2025-043 Owner: SPXS Country: US Constellation: starlink operational
LEOCIRCULAR

实时位置

正在加载3D地球...

关于 Starlink 32915

正在加载描述...

即将过境

Passes for default location (London). Set your location on the main map for personalized predictions.

高度历史

Loading altitude history...

两行轨道根数

1 63152U 25043W 26125.51460603 .00031444 00000-0 11470-2 0 9993
2 63152 43.0020 62.1341 0000854 313.7286 46.3495 15.27588190 65976
Epoch: May 5, 2026 • Age: 17 hours

当前状态

高度 495.4 km
速度 7.62 km/s
星下点 -42.30°S, 39.12°E
发射日期 Mar 3, 2025
运行时间 1.1 years
类型 internet

技术详情

分类 Payload
质量 730.00 kg
干质量 700.00 kg
总质量 730.00 kg
长度 0.30 m
直径 4.10 m
跨度 29.00 m
形状 Box + pan
制造商 SPXS
平台类型 Starlink V2M
阶段状态 In Orbit
所有者/国家 SPXS/US

Most Searched